Location: Tuttlingen
(47.9853°N, 8.8165°E)
Time: 11:36:11
(UTC+01:00)

ISS - Pass Details

Date: 11 November 2017
Orbit: 402 x 407 km, 51.6° (Epoch: 19 November)

Event Time Altitude Azimuth Distance (km) Brightness Sun altitude
Exits shadow 05:10:04 36° 42° (NE) 660 -2.5 -22.6°
Drops below altitude 10° 05:12:28 10° 78° (ENE) 1,457 0.0 -22.2°
Sets 05:14:37 0° 86° (E) 2,315 1.5 -21.9°
